Location: Aydie
(43.5695°N, 0.1043°W)
Time: 12:39:59
(UTC+00:00)

Cosmos 2233 Rocket - Pass Details

Date: 17 November 2025
Orbit: 952 x 989 km, 82.9° (Epoch: 11 December)

Event Time Altitude Azimuth Distance (km) Brightness Sun altitude
Rises 16:58:05 0° 181° (S) 3,674 7.3 -4.9°
Reaches altitude 10° 17:00:35 10° 179° (S) 2,734 6.6 -5.3°
Maximum altitude 17:06:51 77° 95° (E) 1,018 4.0 -6.4°
Drops below altitude 10° 17:13:11 10° 11° (N) 2,760 6.1 -7.5°
Sets 17:15:43 0° 10° (N) 3,712 6.7 -7.9°
